Flag for Canada Weather past 2 weeks in Rouyn-Noranda, Quebec, Canada

Now
21 °F

Passing clouds.


Feels Like: 13 °F
Forecast: 25 / 31 °F
Wind: 7 mph from Southwest

Location: Rouyn Airport

Current Time: Dec 26, 2014 at 7:23:53 AM

Latest Report: Dec 26, 2014 at 6:00 AM


Visibility: 15 mi

Pressure: 29.97 "Hg

Humidity: 93%

Dew point: 19 °F

Location of Rouyn-NorandaLocation

Historic Weather in Rouyn-Noranda — Graph

°F

Rouyn-Noranda temperature yesterday

Maximum temperature yesterday: 32 °F (at 12:00 AM)
Minimum temperature yesterday: 23 °F (at 10:00 AM)
Average temperature yesterday: 28 °F

Past Weeks' High & Low Weather Summary

 TemperatureHumidityPressure
High34 °F (Dec 16, 12:00 PM)100% (Dec 12, 12:00 AM)30.43 "Hg (Dec 12, 12:00 AM)
Low-13 °F (Dec 21, 6:00 AM)76% (Dec 21, 4:00 AM)28.87 "Hg (Dec 25, 3:51 AM)
Average19 °F92%30.01 "Hg
* Reported Dec 11 6:00 AM — Dec 26 6:00 AM, Rouyn-Noranda, Weather by CustomWeather, © 2014

Note: Actual official high and low records may vary slightly from our data, if they occured in-between our weather recording intervals... More about our weather records

Advertising

Rouyn-Noranda weather history for previous 24 hours

 ConditionsComfort  
Time TempWeatherWind HumidityBarometerVisibility
6:00 AM
Dec 26
21 °FPassing clouds.7 mph93%29.97 "Hg15 mi
5:00 AM23 °FPassing clouds.6 mph93%29.96 "Hg12 mi
4:00 AM25 °FOvercast.7 mph86%29.95 "Hg15 mi
3:00 AM27 °FPassing clouds.12 mph86%29.94 "Hg15 mi
2:00 AM25 °FOvercast.7 mph93%29.92 "Hg15 mi
1:00 AM27 °FOvercast.9 mph86%29.89 "Hg15 mi
12:00 AM27 °FPassing clouds.15 mph86%29.86 "Hg15 mi
11:00 PM
Dec 25
27 °FOvercast.12 mph86%29.83 "Hg12 mi
10:00 PM28 °FLight snow. Overcast.15 mph80%29.80 "Hg12 mi
9:00 PM28 °FLight snow. Overcast.12 mph86%29.76 "Hg12 mi
8:00 PM27 °FLight snow. Overcast.16 mph93%29.73 "Hg12 mi
7:00 PM27 °FLight snow. Overcast.18 mph86%29.69 "Hg12 mi
6:00 PM27 °FLight snow. Overcast.18 mph86%29.65 "Hg12 mi
5:00 PM27 °FLight snow. Overcast.18 mph86%29.60 "Hg12 mi
4:00 PM27 °FOvercast.16 mph86%29.55 "Hg15 mi
3:00 PM27 °FOvercast.18 mph86%29.49 "Hg15 mi
2:00 PM27 °FLow clouds.20 mph86%29.44 "Hg15 mi
1:00 PM25 °FLight snow. Overcast.18 mph93%29.39 "Hg12 mi
12:00 PM25 °FLight snow. Overcast.21 mph86%29.35 "Hg12 mi
11:00 AM23 °FLight snow. Overcast.17 mph93%29.31 "Hg10 mi
10:00 AM23 °FLight snow. Low clouds.17 mph86%29.27 "Hg1 mi
9:00 AM25 °FLight snow. Ice fog.16 mph86%29.20 "Hg1 mi
8:55 AM25 °FLight snow. Ice fog.20 mph86%29.19 "Hg1 mi
8:00 AM27 °FLight snow. Ice fog.21 mph93%29.10 "Hg1 mi
7:00 AM28 °FLight snow. Ice fog.20 mph93%29.02 "Hg1 mi
Weather by CustomWeather, © 2014

See weather overviewHow to use our weather pages